SILO ALERT LOG
| Silo ID | Alert Type | Alert Message | Silo Type | Points | Depth (mm) | Strength | Temperature (°C) | Humidity (%) | Height (mm) | Volume (㎥) | Weight (t) | Flag | Time |
|---|---|---|---|---|---|---|---|---|---|---|---|---|---|
| DJSAD08 | Humidity | 습도센서 측정값이 80% 초과 | 평 | 574 | 2358 | 4878 | 9 | 83.2 | 5221 | 742.916 | 469.672 | 12 | 2024-01-12 21:39:31.000 |
| DJSAD18 | Humidity | 습도센서 측정값이 80% 초과 | 평 | 118 | 1520 | 5888 | 5.9 | 80.8 | 6059 | 603.425 | 381.485 | 11 | 2024-01-12 21:39:30.000 |
| DJHNR03 | Temperature | 온도센서 상태 이상 | 호퍼 | 0 | 15500 | 0 | -999 | -999 | -119 | 0 | 0 | 31 | 2024-01-12 21:39:24.000 |
| DJSSD12 | Temperature | 온도센서 상태 이상 | 호퍼 | 0 | 11350 | 0 | -999 | -999 | -120 | 0 | 0 | 31 | 2024-01-12 21:39:24.000 |
| DJSAD03 | Humidity | 습도센서 측정값이 80% 초과 | 평 | 444 | 1629 | 6200 | 4.7 | 84.5 | 7150 | 295.993 | 187.127 | 0 | 2024-01-12 20:39:39.000 |
| DJDJD03 | Humidity | 습도센서 측정값이 80% 초과 | 평 | 63 | 4443 | 5293 | 4.5 | 80.6 | 3236 | 392.098 | 247.885 | 0 | 2024-01-12 20:39:39.000 |
| DJSAD01 | Humidity | 습도센서 측정값이 80% 초과 | 평 | 454 | 1467 | 7491 | 2.7 | 84.8 | 7312 | 302.712 | 191.374 | 0 | 2024-01-12 20:39:39.000 |
| DJSAD02 | Humidity | 습도센서 측정값이 80% 초과 | 평 | 375 | 1143 | 4333 | 3.1 | 85 | 7636 | 316.108 | 199.843 | 11 | 2024-01-12 20:39:38.000 |
| DJSSD05 | Temperature | 온도센서 측정값이 0도 미만 | 평 | 847 | 2549 | 5026 | -45.4 | 43.7 | 5530 | 769.704 | 486.607 | 0 | 2024-01-12 20:39:33.000 |
| DJSSD01 | Humidity | 습도센서 측정값이 80% 초과 | 평 | 790 | 2572 | 4665 | 6.4 | 81.5 | 5507 | 766.541 | 484.607 | 0 | 2024-01-12 20:39:33.000 |
| DJSSD09 | Temperature | 온도센서 측정값이 0도 미만 | 평 | 118 | 2879 | 3033 | -45.4 | 0 | 4800 | 668.077 | 422.359 | 11 | 2024-01-12 20:39:33.000 |
| DJSSD04 | Temperature | 온도센서 상태 이상 | 평 | 0 | 8200 | 0 | -999 | -999 | -120 | -16.702 | 0 | 31 | 2024-01-12 20:39:33.000 |
| DJHNR01 | Humidity | 습도센서 측정값이 80% 초과 | 호퍼 | 471 | 4315 | 4913 | 7.1 | 99.3 | 11064 | 472.262 | 298.564 | 13 | 2024-01-12 20:39:32.000 |
| DJSAD07 | Humidity | 습도센서 측정값이 80% 초과 | 평 | 266 | 2457 | 3468 | 3.1 | 83.1 | 5122 | 728.875 | 460.795 | 11 | 2024-01-12 20:39:31.000 |
| DJSAD17 | Humidity | 습도센서 측정값이 80% 초과 | 평 | 450 | 3109 | 4938 | 5.4 | 81.2 | 4470 | 445.189 | 281.449 | 0 | 2024-01-12 20:39:31.000 |
| DJSAD08 | Humidity | 습도센서 측정값이 80% 초과 | 평 | 572 | 2352 | 4889 | 9.3 | 83.1 | 5227 | 743.76 | 470.205 | 12 | 2024-01-12 20:39:31.000 |
| DJSSD11 | Temperature | 온도센서 측정값이 0도 미만 | 호퍼 | 443 | 7381 | 153 | -1.3 | 57.6 | 3848 | 29.086 | 15.852 | 0 | 2024-01-12 20:39:31.000 |
| DJHNR11 | Temperature | 온도센서 측정값이 0도 미만 | 호퍼 | 75 | 4694 | 231 | -1.9 | 74.7 | 5685 | 68.69 | 43.426 | 11 | 2024-01-12 20:39:31.000 |
| DJDJD04 | Humidity | 습도센서 측정값이 80% 초과 | 평 | 276 | 4200 | 4374 | 5.7 | 80.5 | 3479 | 421.555 | 266.507 | 11 | 2024-01-12 20:39:31.000 |
| DJHNR14 | Temperature | 온도센서 측정값이 0도 미만 | 호퍼 | 42 | 3078 | 4520 | -1.4 | 71.6 | 7301 | 103.544 | 65.461 | 11 | 2024-01-12 20:39:30.000 |
[첫 페이지] [9976] [9977] [9978] [9979] 9980 [9981] [9982] [9983] [9984] [마지막 페이지]